Zurück zum Katalog

STARLINK-32373

AktivKommunikationVLEO
NORAD 60923·PAYLOAD·🇺🇸 United States

Gestartet Aug 31, 2024 von Cape Canaveral Space Force Station

Loading…

Nächste Überflüge (nächste 24 Stunden)

TLE

AktuellSource: CelesTrak SupGP

Epoche: Sep 14, 2026, 22:41 UTC

1 60923C 24154W   26257.94562500 -.00045237  00000+0 -13367-2 0  2570
2 60923  53.1577 123.4247 0001313  85.1239 138.8472 15.34409597    10

Verfolge STARLINK-32373 in Echtzeit mit AllMySat

Download on the App Store